THEOS

导读

THEOS是泰国地球观测系统(Thailand Earth Observation System)卫星,由泰国研发,于2008年10月1日由俄罗斯第聂伯火箭从亚斯内发射场送入822公里高度的太阳同步轨道,卫星重量约715千克。它可获取2米全色、15米多光谱影像,主要服务地球科学研究、灾害监测等领域,为资源调查、环境管理提供高精度观测数据,是泰国首颗自主功能对地观测卫星。

基本信息
目录编号:
33396
目录名称:
THEOS
国际标识:
2008-049A
轨道中心:
EARTH
卫星名称:
THEOS
卫星全名:
--
卫星状态:
在轨 (已飞行6557 天)
发射日期:
2008-10-01 UTC
国别 :
(TH)
星等 :
--
该卫星已列入 空间交会检测服务 Space Conjunction Data Service (SCDS) ,当前飞行风险评估等级: 无高风险
轨道信息
数据来源 国际轨道数据 AOE轨道数据
星历时间 2026-09-14T06:54:06+0800
6小时前
查看轨道信息
2026-09-12T23:00:00+0800
1天前
查看轨道信息
半长轴 7203.012km 7203.005km
偏心率 0.0001341 0.0001192
轨道倾角 98.549° 98.549°
近地点辐角 88.547° 86.841°
升交点赤经 311.317° 310.032°
平近点角 271.586° 321.429°
近地点 823.909km 824.009km
远地点 825.841km 825.727km
周期 101.398分钟 101.398分钟
每日圈数 14.201415 14.201435
详细信息
使用方式:
暂无
2D轨道图
3D轨道图
轨道高度分析图
轨道倾角分析图
轨道综合分析图
查看轨道综合分析图
与全量物体交会距离演化趋势 订阅飞行安全评估服务
与全量物体交会风险概率演化趋势 订阅飞行安全评估服务